TimeEDT,TemperatureF,Dew PointF,Humidity,Sea Level PressureIn,VisibilityMPH,Wind Direction,Wind SpeedMPH,Gust SpeedMPH,PrecipitationIn,Events,Conditions,WindDirDegrees,DateUTC
12:54 AM,41.0,33.1,73,30.26,10.0,NNW,3.5,-,N/A,,Clear,330,2014-04-19 04:54:00
1:54 AM,39.9,33.1,77,30.26,10.0,NW,3.5,-,N/A,,Clear,320,2014-04-19 05:54:00
2:54 AM,37.9,32.0,79,30.27,10.0,NNW,4.6,-,N/A,,Clear,330,2014-04-19 06:54:00
3:54 AM,37.0,30.9,79,30.27,10.0,Calm,Calm,-,N/A,,Clear,0,2014-04-19 07:54:00
4:54 AM,36.0,32.0,86,30.27,10.0,North,3.5,-,N/A,,Clear,10,2014-04-19 08:54:00
5:54 AM,36.0,30.9,82,30.29,10.0,Calm,Calm,-,N/A,,Clear,0,2014-04-19 09:54:00
6:54 AM,35.1,30.9,85,30.31,9.0,Calm,Calm,-,N/A,,Mostly Cloudy,0,2014-04-19 10:54:00
7:54 AM,37.9,33.1,83,30.34,10.0,Calm,Calm,-,N/A,,Clear,0,2014-04-19 11:54:00
8:54 AM,45.0,35.1,68,30.35,10.0,West,5.8,-,N/A,,Clear,270,2014-04-19 12:54:00
9:54 AM,51.1,28.0,41,30.35,10.0,Variable,5.8,-,N/A,,Clear,0,2014-04-19 13:54:00
10:54 AM,54.0,23.0,30,30.36,10.0,NNW,10.4,-,N/A,,Clear,330,2014-04-19 14:54:00
11:54 AM,57.0,25.0,29,30.34,10.0,NNE,9.2,-,N/A,,Clear,30,2014-04-19 15:54:00
12:54 PM,60.1,25.0,26,30.31,10.0,Variable,6.9,23.0,N/A,,Clear,0,2014-04-19 16:54:00
1:54 PM,61.0,26.1,26,30.30,10.0,NNE,10.4,-,N/A,,Clear,30,2014-04-19 17:54:00
2:54 PM,62.1,27.0,26,30.30,10.0,NNW,8.1,-,N/A,,Clear,330,2014-04-19 18:54:00
3:54 PM,62.1,28.0,28,30.30,10.0,NNE,12.7,19.6,N/A,,Clear,20,2014-04-19 19:54:00
4:54 PM,61.0,27.0,27,30.29,10.0,North,13.8,18.4,N/A,,Clear,10,2014-04-19 20:54:00
5:54 PM,59.0,19.0,21,30.31,10.0,ENE,13.8,-,N/A,,Clear,60,2014-04-19 21:54:00
6:54 PM,57.0,17.1,21,30.32,10.0,NNE,11.5,-,N/A,,Clear,30,2014-04-19 22:54:00
7:54 PM,54.0,18.0,24,30.33,10.0,NNE,6.9,-,N/A,,Clear,30,2014-04-19 23:54:00
8:54 PM,51.1,26.1,38,30.36,10.0,North,5.8,-,N/A,,Clear,10,2014-04-20 00:54:00
9:54 PM,48.9,28.0,44,30.39,10.0,North,6.9,-,N/A,,Clear,10,2014-04-20 01:54:00
10:54 PM,46.9,28.9,50,30.40,10.0,Calm,Calm,-,N/A,,Clear,0,2014-04-20 02:54:00
11:54 PM,45.0,28.0,52,30.40,10.0,Calm,Calm,-,N/A,,Clear,0,2014-04-20 03:54:00